Mount Holly, NJ

4:38 AM EST on December 11, 2019 (GMT -0500)
South Jersey Regional

Weather History for KVAY - September, 2019

Change the Weather History Date:

Friday, September 6, 2019

  Actual Average (KPNE) Record (KPNE)
Temperature  
Mean Temperature 64 °F -  
Max Temperature 68 °F 78 °F 97 °F (2018)
Min Temperature 60 °F 60 °F 50 °F (2000)
Degree Days  
Heating Degree Days 1    
Growing Degree Days 14 (Base 50)    
Moisture  
Dew Point 59 °F    
Average Humidity 85    
Maximum Humidity 93    
Minimum Humidity 76    
Precipitation  
Precipitation 0.00 in - - ()
Sea Level Pressure  
Sea Level Pressure 29.83 in    
Wind  
Wind Speed 7 mph (NNE)    
Max Wind Speed 18 mph    
Max Gust Speed 26 mph    
Visibility 10 miles    
Events Rain    
Averages and records for this station are not official NWS values.
T = Trace of Precipitation, MM = Missing Value Source: NWS Daily Summary

Daily Weather History Graph

Daily Weather History Graph

Search for Another Location

Airport or City:

Astronomy

Sep. 06, 2019 Rise Set
Actual Time 6:31 AM EDT 7:23 PM EDT
Civil Twilight 6:04 AM EDT 7:50 PM EDT
Nautical Twilight 5:31 AM EDT 8:23 PM EDT
Astronomical Twilight 4:57 AM EDT 8:56 PM EDT
Moon 2:37 PM EDT (9/6) No Moon Set
Length of Visible Light 13h 46m
Length of Day
12h 51m
First Quarter, 55% of the Moon is Illuminated
Sep 6
First Quarter
Sep 14
Full
Sep 21
Last Quarter
Sep 28
New
Oct 5
First Quarter

Hourly Weather History & Observations

Time (EDT) Temp. Dew Point Humidity Pressure Visibility Wind Dir Wind Speed Gust Speed Precip Events Conditions
12:54 AM 64.0 °F 59.0 °F 84% 29.99 in 10.0 mi Calm Calm - N/A   Clear
1:54 AM 64.0 °F 59.0 °F 84% 29.98 in 10.0 mi Variable 3.5 mph - N/A   Overcast
2:54 AM 64.9 °F 59.0 °F 81% 29.96 in 10.0 mi NNE 3.5 mph - N/A   Mostly Cloudy
3:54 AM 64.0 °F 59.0 °F 84% 29.95 in 10.0 mi NNE 3.5 mph - N/A   Mostly Cloudy
4:54 AM 64.9 °F 59.0 °F 81% 29.93 in 10.0 mi NNE 5.8 mph - N/A   Mostly Cloudy
5:54 AM 64.9 °F 59.0 °F 81% 29.92 in 10.0 mi NNE 6.9 mph - N/A   Overcast
6:54 AM 64.9 °F 59.0 °F 81% 29.92 in 10.0 mi NNE 8.1 mph - N/A   Overcast
7:36 AM 66.0 °F 59.0 °F 78% 29.91 in 10.0 mi NNE 5.8 mph - N/A   Overcast
7:54 AM 66.0 °F 59.0 °F 78% 29.91 in 10.0 mi NNE 6.9 mph - N/A   Overcast
8:54 AM 66.9 °F 61.0 °F 81% 29.87 in 10.0 mi NE 4.6 mph - N/A   Overcast
9:54 AM 68.0 °F 62.1 °F 81% 29.88 in 10.0 mi East 8.1 mph - N/A   Overcast
10:24 AM 68.0 °F 60.1 °F 76% 29.86 in 10.0 mi ENE 10.4 mph 23.0 mph N/A   Overcast
10:51 AM 66.2 °F 59.0 °F 78% 29.86 in 10.0 mi NE 10.4 mph 21.9 mph N/A   Overcast
10:54 AM 66.9 °F 59.0 °F 76% 29.86 in 10.0 mi NE 11.5 mph 21.9 mph N/A   Overcast
11:54 AM 66.0 °F 60.1 °F 81% 29.86 in 10.0 mi NE 9.2 mph 19.6 mph 0.00 in Rain Light Rain
12:32 PM 64.0 °F 60.1 °F 87% 29.85 in 10.0 mi ENE 10.4 mph 18.4 mph 0.00 in   Overcast
12:45 PM 64.0 °F 60.1 °F 87% 29.84 in 10.0 mi ENE 9.2 mph - 0.00 in   Overcast
12:54 PM 64.0 °F 61.0 °F 90% 29.83 in 10.0 mi NE 8.1 mph - 0.00 in   Overcast
1:49 PM 64.4 °F 59.0 °F 83% 29.81 in 10.0 mi NNE 11.5 mph 26.5 mph N/A   Overcast
1:54 PM 64.9 °F 59.0 °F 81% 29.81 in 10.0 mi NE 10.4 mph 26.5 mph N/A   Overcast
2:54 PM 64.0 °F 59.0 °F 84% 29.78 in 10.0 mi NNE 10.4 mph 24.2 mph N/A   Overcast
3:09 PM 64.0 °F 59.0 °F 84% 29.78 in 10.0 mi NNE 11.5 mph 18.4 mph N/A   Overcast
3:16 PM 64.0 °F 59.0 °F 84% 29.77 in 10.0 mi NNE 13.8 mph 19.6 mph N/A   Overcast
3:54 PM 63.0 °F 57.0 °F 81% 29.77 in 10.0 mi NNE 16.1 mph 26.5 mph N/A   Overcast
4:37 PM 63.0 °F 57.0 °F 81% 29.77 in 7.0 mi NNE 11.5 mph 20.7 mph N/A   Overcast
4:54 PM 62.1 °F 57.9 °F 86% 29.77 in 10.0 mi NNE 13.8 mph 20.7 mph N/A   Overcast
5:54 PM 62.1 °F 57.9 °F 86% 29.77 in 10.0 mi NNE 11.5 mph 20.7 mph N/A   Overcast
6:47 PM 62.1 °F 59.0 °F 90% 29.77 in 4.0 mi North 13.8 mph 19.6 mph 0.00 in Rain Light Rain
6:54 PM 61.0 °F 59.0 °F 93% 29.77 in 5.0 mi North 17.3 mph 23.0 mph 0.00 in Rain Light Rain
7:28 PM 60.1 °F 57.0 °F 90% 29.78 in 4.0 mi North 18.4 mph 24.2 mph 0.00 in   Overcast
7:54 PM 60.1 °F 57.0 °F 90% 29.78 in 10.0 mi North 9.2 mph - 0.00 in   Overcast
8:35 PM 60.1 °F 57.0 °F 90% 29.78 in 10.0 mi North 10.4 mph - N/A   Overcast
8:54 PM 61.0 °F 55.9 °F 83% 29.78 in 10.0 mi North 9.2 mph - N/A   Overcast
9:54 PM 60.1 °F 57.0 °F 90% 29.78 in 10.0 mi North 9.2 mph - N/A   Overcast
10:17 PM 60.1 °F 57.0 °F 90% 29.78 in 10.0 mi North 8.1 mph - N/A   Overcast
10:27 PM 60.1 °F 57.0 °F 90% 29.79 in 10.0 mi NNW 5.8 mph - N/A   Overcast
10:54 PM 60.1 °F 57.0 °F 90% 29.77 in 10.0 mi NNW 5.8 mph - 0.00 in   Overcast
11:23 PM 60.1 °F 57.0 °F 90% 29.78 in 10.0 mi NNW 6.9 mph - N/A   Overcast
11:41 PM 60.1 °F 57.0 °F 90% 29.78 in 10.0 mi NNW 10.4 mph - N/A   Overcast
11:54 PM 60.1 °F 55.9 °F 86% 29.77 in 10.0 mi North 8.1 mph - N/A   Overcast